Time,TemperatureF,DewpointF,PressureIn,WindDirection,WindDirectionDegrees,WindSpeedMPH,WindSpeedGustMPH,Humidity,HourlyPrecipIn,Conditions,Clouds,dailyrainin,SolarRadiationWatts/m^2,SoftwareType,DateUTC
2017-01-21 00:08:00,44.9,43.6,29.81,West,262,0.0,0.0,95,0.00,,---,0.00,0.00,VWS V15.00,2017-01-21 05:08:00,
2017-01-21 00:13:00,44.7,43.4,29.81,West,262,0.0,0.0,95,0.00,,---,0.00,0.00,VWS V15.00,2017-01-21 05:13:00,
2017-01-21 00:18:00,44.6,43.3,29.81,West,262,0.0,0.0,95,0.00,,---,0.00,0.00,VWS V15.00,2017-01-21 05:18:00,
2017-01-21 00:23:00,44.5,43.2,29.81,West,262,0.0,0.0,95,0.00,,---,0.00,0.00,VWS V15.00,2017-01-21 05:23:00,
2017-01-21 00:33:00,44.4,43.3,29.80,West,262,0.0,0.0,96,0.00,,---,0.00,0.00,VWS V15.00,2017-01-21 05:33:00,
2017-01-21 00:43:00,44.3,43.2,29.80,West,262,0.0,0.0,96,0.00,,---,0.00,0.00,VWS V15.00,2017-01-21 05:43:00,
2017-01-21 00:48:00,44.2,43.1,29.80,West,262,0.0,0.0,96,0.00,,---,0.00,0.00,VWS V15.00,2017-01-21 05:48:00,
2017-01-21 00:59:00,43.7,42.4,29.81,West,262,0.0,0.0,95,0.00,,---,0.00,0.00,VWS V15.00,2017-01-21 05:59:00,
2017-01-21 01:08:00,43.3,42.0,29.81,West,262,0.0,0.0,95,0.00,,---,0.00,0.00,VWS V15.00,2017-01-21 06:08:00,
2017-01-21 01:13:00,43.1,42.0,29.80,West,262,0.0,0.0,96,0.00,,---,0.00,0.00,VWS V15.00,2017-01-21 06:13:00,
2017-01-21 01:18:00,43.0,41.9,29.80,West,262,0.0,0.0,96,0.00,,---,0.00,0.00,VWS V15.00,2017-01-21 06:18:00,
2017-01-21 01:23:00,42.9,41.8,29.80,West,262,0.0,0.0,96,0.00,,---,0.00,0.00,VWS V15.00,2017-01-21 06:23:00,
2017-01-21 01:28:00,42.9,41.8,29.80,West,262,0.0,0.0,96,0.00,,---,0.00,0.00,VWS V15.00,2017-01-21 06:28:00,
2017-01-21 01:38:00,42.5,41.4,29.80,West,262,0.0,0.0,96,0.00,,---,0.00,0.00,VWS V15.00,2017-01-21 06:38:00,
2017-01-21 01:43:00,42.4,41.3,29.81,West,262,0.0,0.0,96,0.00,,---,0.00,0.00,VWS V15.00,2017-01-21 06:43:00,
2017-01-21 01:53:00,42.3,41.2,29.80,West,262,0.0,0.0,96,0.00,,---,0.00,0.00,VWS V15.00,2017-01-21 06:53:00,
2017-01-21 01:58:00,42.2,41.1,29.81,West,262,0.0,0.0,96,0.00,,---,0.00,0.00,VWS V15.00,2017-01-21 06:58:00,
2017-01-21 02:08:00,42.1,41.0,29.81,West,262,0.0,0.0,96,0.00,,---,0.00,0.00,VWS V15.00,2017-01-21 07:08:00,
2017-01-21 02:18:00,42.0,40.9,29.81,West,262,0.0,0.0,96,0.00,,---,0.00,0.00,VWS V15.00,2017-01-21 07:18:00,
2017-01-21 02:23:00,41.8,40.8,29.81,West,262,0.0,0.0,96,0.00,,---,0.00,0.00,VWS V15.00,2017-01-21 07:23:00,
2017-01-21 02:28:00,41.6,40.5,29.81,West,262,0.0,0.0,96,0.00,,---,0.00,0.00,VWS V15.00,2017-01-21 07:28:00,
2017-01-21 02:33:00,41.4,40.3,29.81,West,262,0.0,0.0,96,0.00,,---,0.00,0.00,VWS V15.00,2017-01-21 07:33:00,
2017-01-21 02:43:00,41.0,40.0,29.82,West,262,0.0,0.0,96,0.00,,---,0.00,0.00,VWS V15.00,2017-01-21 07:43:00,
2017-01-21 02:53:00,40.7,39.7,29.82,West,262,0.0,0.0,96,0.00,,---,0.00,0.00,VWS V15.00,2017-01-21 07:53:00,
2017-01-21 02:58:00,40.5,39.5,29.82,West,262,0.0,0.0,96,0.00,,---,0.00,0.00,VWS V15.00,2017-01-21 07:58:00,
2017-01-21 03:03:00,40.3,39.2,29.82,West,262,0.0,0.0,96,0.00,,---,0.00,0.00,VWS V15.00,2017-01-21 08:03:00,
2017-01-21 03:08:00,40.1,39.0,29.82,West,262,0.0,0.0,96,0.00,,---,0.00,0.00,VWS V15.00,2017-01-21 08:08:00,
2017-01-21 03:13:00,40.0,39.0,29.82,West,262,0.0,0.0,96,0.00,,---,0.00,0.00,VWS V15.00,2017-01-21 08:13:00,
2017-01-21 03:18:00,40.0,39.0,29.82,West,262,0.0,0.0,96,0.00,,---,0.00,0.00,VWS V15.00,2017-01-21 08:18:00,
2017-01-21 03:23:00,40.0,39.0,29.82,West,262,0.0,0.0,96,0.00,,---,0.00,0.00,VWS V15.00,2017-01-21 08:23:00,
2017-01-21 03:33:00,40.2,39.4,29.82,West,262,0.0,0.0,97,0.00,,---,0.00,0.00,VWS V15.00,2017-01-21 08:33:00,
2017-01-21 03:43:00,40.1,39.3,29.81,West,262,0.0,0.0,97,0.00,,---,0.00,0.00,VWS V15.00,2017-01-21 08:43:00,